Stations météo

réclame
Mon MeteoGroup
Pelzerhaken, Allemagne (10152): Température de l'air & dewpoint: 28.06.2020 04:00:00 - 04.07.2020 04:00:00 (CEST)Pelzerhaken, Allemagne (10152): Température de l'air 5cm & Température de l'air -5cm: 28.06.2020 04:00:00 - 04.07.2020 04:00:00 (CEST)Pelzerhaken, Allemagne (10152): Température de l'air -20cm & Température de l'air -100cm: 28.06.2020 04:00:00 - 04.07.2020 04:00:00 (CEST)Pelzerhaken, Allemagne (10152): Vitesse du vent & gusts: 28.06.2020 04:00:00 - 04.07.2020 04:00:00 (CEST)Pelzerhaken, Allemagne (10152): Direction du vent: 28.06.2020 04:00:00 - 04.07.2020 04:00:00 (CEST)Pelzerhaken, Allemagne (10152): reduced air pressure: 28.06.2020 04:00:00 - 04.07.2020 04:00:00 (CEST)Pelzerhaken, Allemagne (10152): visibility: 28.06.2020 04:00:00 - 04.07.2020 04:00:00 (CEST)Pelzerhaken, Allemagne (10152): Quantités de précipitations: 28.06.2020 04:00:00 - 04.07.2020 04:00:00 (CEST)
Date & Time tt [°C] td [°C] tt 5cm [°C] tt -5cm [°C] tt -20cm [°C] tt -100cm [°C] ff [km/h] ff [knt] fx [km/h] fx [knt] dd ppp [hPa] vv [km] rr [mm]
04.07.2020 04:00:00 - - - - - - - - - - - - - -
04.07.2020 03:00:00 17,2 15,0 16,6 16,7 18,6 17,2 28 15 34 19 SSW 1012,1 25 0,0
04.07.2020 02:00:00 17,0 15,6 16,5 16,9 18,8 17,2 20 11 24 13 SSW 1012,9 16 0,0
04.07.2020 01:00:00 16,9 15,4 16,1 16,9 19,1 17,2 18 10 23 12 SSW 1013,3 13 0,0
04.07.2020 00:00:00 16,2 14,5 15,3 17,1 19,4 17,2 12 6 26 14 WSW 1013,7 26 0,0
03.07.2020 23:00:00 16,2 14,6 15,2 17,5 19,7 17,2 14 8 29 16 WSW 1014,0 20 0,0
03.07.2020 22:00:00 17,0 15,0 16,1 18,1 20,0 17,2 12 7 21 11 WSW 1013,9 26 0,1
03.07.2020 21:00:00 16,9 15,4 16,0 18,8 20,3 17,2 9 5 16 8 SW 1013,8 24 0,2
03.07.2020 20:00:00 16,7 14,5 15,9 19,6 20,7 17,2 7 4 15 8 WSW 1013,6 30 0,1
03.07.2020 19:00:00 17,4 14,2 16,8 20,2 21,0 17,2 7 4 20 11 W 1014,1 29 0,0
03.07.2020 18:00:00 17,3 13,6 17,1 20,4 21,3 17,2 17 9 44 24 WSW 1014,1 31 0,0
03.07.2020 17:00:00 18,9 13,3 18,9 23,5 21,3 17,2 21 12 37 20 SW 1013,6 44 0,0
03.07.2020 16:00:00 19,2 12,7 19,5 24,0 21,1 17,2 10 6 27 14 WSW 1013,8 58 0,0
03.07.2020 15:00:00 20,1 12,7 21,9 25,6 20,6 17,2 16 9 31 17 SW 1014,0 70 0,0
03.07.2020 14:00:00 19,3 12,7 21,4 24,5 20,0 17,2 16 9 24 13 SSW 1014,3 66 0,0
03.07.2020 13:00:00 17,9 12,4 19,7 22,9 19,5 17,2 12 6 19 10 SSW 1014,6 49 0,0
03.07.2020 12:00:00 16,9 12,6 18,7 21,9 18,9 17,2 10 5 16 9 SSW 1014,6 69 0,0
03.07.2020 11:00:00 16,5 11,9 17,6 22,2 18,2 17,2 13 7 16 9 S 1014,4 45 0,0
03.07.2020 10:00:00 15,2 12,1 15,2 18,7 18,0 17,2 6 3 9 5 WSW 1014,6 50 0,0
03.07.2020 09:00:00 14,8 12,3 14,5 17,2 17,9 17,2 3 1 8 4 W 1014,1 54 0,0
03.07.2020 08:00:00 14,2 12,9 13,9 16,4 18,0 17,2 3 1 14 8 N 1013,8 56 0,0
03.07.2020 07:00:00 13,7 12,8 13,5 15,9 18,1 17,2 8 5 14 7 NW 1013,3 44 0,2
03.07.2020 06:00:00 13,5 12,7 13,1 15,6 18,4 17,2 8 4 14 7 WNW 1012,9 4,9 0,2
03.07.2020 05:00:00 13,7 12,7 13,0 15,6 18,7 17,2 9 5 19 11 NW 1012,3 11 0,2
03.07.2020 04:00:00 14,2 12,4 13,4 15,8 19,1 17,2 11 6 16 9 NW 1011,9 45 0,0
03.07.2020 03:00:00 14,7 12,9 13,3 16,3 19,4 17,2 9 5 14 8 WNW 1011,6 42 0,0
03.07.2020 02:00:00 15,9 13,9 15,2 17,2 19,7 17,2 8 4 16 8 W 1011,4 39 0,0
03.07.2020 01:00:00 15,8 13,7 14,3 17,4 20,1 17,2 4 2 11 6 W 1011,1 50 0,0
03.07.2020 00:00:00 16,1 14,2 14,7 17,7 20,5 17,2 5 3 13 7 W 1010,9 38 0,0
02.07.2020 23:00:00 16,9 15,8 16,3 18,6 20,9 17,2 8 4 14 8 WSW 1010,7 18 0,0
02.07.2020 22:00:00 17,0 15,9 16,1 19,4 21,3 17,2 8 4 14 8 SW 1010,2 20 0,0
02.07.2020 21:00:00 17,7 15,5 17,5 20,3 21,7 17,2 5 3 13 7 WSW 1009,9 29 0,0
02.07.2020 20:00:00 17,7 15,7 17,5 21,1 22,1 17,1 7 4 16 8 SW 1009,4 23 0,0
02.07.2020 19:00:00 17,9 15,8 18,3 21,6 22,5 17,2 10 5 21 11 SW 1009,5 29 0,0
02.07.2020 18:00:00 17,9 15,7 17,2 22,3 22,9 17,1 19 10 29 15 SSW 1009,3 19 0,0
02.07.2020 17:00:00 19,6 14,3 19,8 25,2 22,9 17,1 6 4 21 11 SW 1009,0 27 0,0
02.07.2020 16:00:00 20,1 14,1 21,7 26,7 22,6 17,1 11 6 22 12 SW 1008,9 67 0,0
02.07.2020 15:00:00 20,4 14,7 21,5 28,0 22,2 17,1 12 7 21 11 WSW 1009,0 43 0,0
02.07.2020 14:00:00 16,5 14,7 16,8 23,5 22,2 17,1 6 3 25 14 WNW 1009,2 22 3,5
02.07.2020 13:00:00 18,6 13,9 19,9 28,6 21,4 17,1 11 6 21 11 SW 1008,8 43 0,0
02.07.2020 12:00:00 18,5 13,9 21,2 28,4 20,3 17,1 14 7 29 16 SSW 1008,7 51 0,0
02.07.2020 11:00:00 17,8 13,2 20,0 26,1 19,4 17,1 16 8 26 14 SW 1008,4 46 0,0
02.07.2020 10:00:00 17,0 14,1 18,5 22,1 18,9 17,1 15 8 23 13 SW 1008,0 30 0,0
02.07.2020 09:00:00 16,4 13,1 16,7 19,4 18,7 17,1 14 8 23 12 WSW 1007,7 27 0,0
02.07.2020 08:00:00 15,8 13,5 16,5 18,1 18,6 17,1 14 8 23 13 WSW 1007,5 25 0,0
02.07.2020 07:00:00 15,3 13,7 15,5 16,7 18,8 17,1 11 6 24 13 WSW 1006,7 20 0,0
02.07.2020 06:00:00 14,7 13,5 14,0 15,8 19,1 17,1 14 8 26 14 WSW 1006,2 19 0,0
02.07.2020 05:00:00 15,2 13,8 14,6 16,2 19,5 17,1 12 6 28 15 WSW 1006,0 27 0,0
02.07.2020 04:00:00 15,3 14,0 14,3 16,8 20,0 17,1 18 10 30 16 WSW 1005,5 30 0,0
02.07.2020 03:00:00 15,3 14,1 14,7 17,1 20,4 17,1 14 8 26 14 WSW 1005,5 36 0,0
02.07.2020 02:00:00 15,7 14,2 15,0 18,1 20,9 17,1 16 8 29 16 WSW 1005,5 34 0,0
02.07.2020 01:00:00 16,1 14,4 15,5 18,8 21,4 17,1 14 7 25 13 WSW 1005,4 36 0,0
02.07.2020 00:00:00 17,1 14,7 16,7 20,0 21,9 17,1 17 9 28 15 WSW 1005,1 25 0,0
01.07.2020 23:00:00 18,0 14,8 17,8 20,8 22,4 17,1 13 7 27 14 WSW 1004,5 39 0,0
01.07.2020 22:00:00 18,6 16,7 18,3 21,8 22,9 17,1 11 6 36 19 WSW 1003,9 33 0,0
01.07.2020 21:00:00 19,0 16,9 18,9 22,9 23,4 17,1 16 9 34 18 SW 1003,2 39 0,0
01.07.2020 20:00:00 19,3 16,9 19,4 24,8 23,8 17,1 23 12 42 23 SSW 1003,1 46 0,0
01.07.2020 19:00:00 20,0 16,9 21,0 26,5 24,0 17,2 33 18 41 22 SSW 1003,1 38 0,0
01.07.2020 18:00:00 20,9 15,7 21,8 28,8 23,9 17,2 22 12 32 17 SSW 1003,7 56 0,0
01.07.2020 17:00:00 21,3 16,0 23,2 29,8 23,5 17,2 22 12 31 17 S 1004,0 48 0,0
01.07.2020 16:00:00 22,0 15,3 24,5 32,0 22,6 17,2 18 10 23 13 SSW 1004,3 61 0,0
01.07.2020 15:00:00 21,3 13,3 24,2 31,6 21,5 17,2 10 5 22 12 SSW 1004,8 41 0,0
01.07.2020 14:00:00 20,9 13,3 24,4 30,4 20,2 17,3 15 8 21 11 SSW 1005,0 70 0,0
01.07.2020 13:00:00 19,8 14,1 23,2 27,3 19,1 17,3 14 8 22 12 SSW 1005,3 43 0,0
01.07.2020 12:00:00 17,8 13,3 19,8 23,7 18,4 17,3 13 7 25 13 SW 1005,2 51 0,0
01.07.2020 11:00:00 17,2 13,3 18,9 22,9 17,7 17,3 13 7 24 13 SW 1005,5 48 0,0
01.07.2020 10:00:00 16,1 13,5 17,4 20,9 17,0 17,4 12 7 22 12 SW 1005,5 31 0,0
01.07.2020 09:00:00 15,5 13,2 17,4 18,6 16,6 17,4 12 6 22 12 SW 1005,3 33 0,0
01.07.2020 08:00:00 14,1 12,7 14,8 15,9 16,4 17,4 15 8 23 12 SW 1005,3 23 0,0
01.07.2020 07:00:00 13,2 12,5 13,2 14,8 16,5 17,5 16 9 24 13 SW 1005,0 19 0,0
01.07.2020 06:00:00 12,9 12,3 12,3 14,2 16,6 17,5 13 7 23 12 SW 1004,8 20 0,0
01.07.2020 05:00:00 12,9 12,2 12,3 14,2 16,8 17,5 13 7 23 13 WSW 1004,8 26 0,0
01.07.2020 04:00:00 12,8 12,5 12,3 14,4 17,1 17,5 12 6 21 11 SW 1004,4 36 0,0
01.07.2020 03:00:00 12,6 12,4 12,3 14,6 17,3 17,5 11 6 21 11 WSW 1004,5 9 0,4
01.07.2020 02:00:00 12,8 12,7 12,6 14,8 17,6 17,6 11 6 28 15 WSW 1004,8 4,3 0,8
01.07.2020 01:00:00 12,9 12,6 12,6 15,2 17,8 17,6 17 9 41 22 SW 1005,0 5 0,2
01.07.2020 00:00:00 15,1 10,9 14,6 15,8 18,1 17,6 23 12 42 23 SW 1004,9 58 0,0
30.06.2020 23:00:00 15,4 11,9 14,6 16,2 18,4 17,6 16 9 36 19 SW 1005,2 42 0,0
30.06.2020 22:00:00 15,8 12,4 15,5 16,9 18,6 17,6 23 12 40 22 SW 1005,3 40 0,0
30.06.2020 21:00:00 16,1 12,6 15,9 17,7 18,8 17,6 22 12 32 18 SW 1004,9 38 0,0
30.06.2020 20:00:00 16,0 12,2 16,0 18,4 18,9 17,7 21 12 48 26 SW 1005,0 37 0,0
30.06.2020 19:00:00 16,9 11,8 16,9 19,5 18,8 17,7 26 14 48 26 SW 1005,0 44 0,0
30.06.2020 18:00:00 17,4 12,4 18,4 19,4 18,7 17,7 24 13 44 24 SW 1005,2 75 0,0
30.06.2020 17:00:00 16,2 12,7 16,7 18,8 18,6 17,7 22 12 44 24 SW 1005,5 34 0,0
30.06.2020 16:00:00 16,2 12,9 17,4 20,0 18,4 17,7 28 15 47 25 SW 1005,7 31 0,0
30.06.2020 15:00:00 15,6 12,8 16,3 18,0 18,3 17,8 27 15 51 28 SW 1005,7 35 0,0
30.06.2020 14:00:00 15,9 11,7 16,2 18,4 18,3 17,8 32 17 57 31 SW 1005,5 40 0,0
30.06.2020 13:00:00 16,0 11,4 16,6 18,2 18,2 17,8 29 16 51 28 SW 1005,4 35 0,0
30.06.2020 12:00:00 16,2 11,2 16,4 17,9 18,1 17,8 32 17 48 26 SW 1005,2 29 0,0
30.06.2020 11:00:00 16,7 11,4 17,4 18,4 17,9 17,8 30 16 46 25 SW 1004,9 36 0,0
30.06.2020 10:00:00 15,9 10,6 16,1 17,6 17,7 17,8 29 16 49 26 SW 1005,0 40 0,0
30.06.2020 09:00:00 15,6 10,2 16,4 16,7 17,6 17,8 31 17 48 26 SW 1005,0 57 0,0
30.06.2020 08:00:00 15,6 9,7 15,6 15,8 17,7 17,8 29 16 43 23 SW 1004,8 38 0,0
30.06.2020 07:00:00 15,6 9,2 15,2 15,1 17,9 17,9 26 14 40 22 SW 1004,9 42 0,0
30.06.2020 06:00:00 15,8 9,2 15,2 14,9 18,1 17,9 22 12 44 24 SW 1005,0 44 0,0
30.06.2020 05:00:00 16,3 8,3 15,7 15,1 18,4 17,9 25 13 48 26 WSW 1005,1 45 0,0
30.06.2020 04:00:00 16,6 9,5 16,0 15,4 18,7 17,9 23 12 37 20 SW 1005,5 46 0,0
30.06.2020 03:00:00 16,8 9,7 15,9 15,5 19,1 17,9 21 12 40 22 SW 1006,0 42 0,0
30.06.2020 02:00:00 17,4 10,3 16,6 16,1 19,4 17,9 22 12 34 18 SSW 1006,5 43 0,0
30.06.2020 01:00:00 17,1 10,1 16,3 16,5 19,8 17,9 16 9 26 14 SW 1007,2 43 0,0
30.06.2020 00:00:00 16,8 10,1 15,9 16,9 20,3 17,9 9 5 21 11 WSW 1007,6 45 0,0
29.06.2020 23:00:00 17,1 9,4 16,1 17,4 20,8 17,9 8 4 23 12 W 1007,9 49 0,0
29.06.2020 22:00:00 17,8 9,0 16,9 18,4 21,3 17,9 12 6 27 14 W 1008,1 42 0,0
29.06.2020 21:00:00 18,2 11,6 15,9 19,9 21,6 17,9 7 4 19 11 WSW 1007,9 47 0,0
29.06.2020 20:00:00 20,0 12,0 19,6 21,4 21,8 18,0 10 5 17 9 WSW 1008,0 50 0,0
29.06.2020 19:00:00 20,0 13,0 20,1 22,9 21,8 18,0 12 7 16 9 S 1008,1 65 0,0
29.06.2020 18:00:00 19,3 12,9 20,3 21,5 22,0 18,0 5 3 32 17 SW 1008,3 57 0,0
29.06.2020 17:00:00 19,6 13,5 20,6 22,3 22,3 18,0 24 13 53 29 SSW 1008,6 60 1,6
29.06.2020 16:00:00 19,0 13,2 16,4 23,4 22,5 18,0 23 13 55 30 SSW 1009,3 24 0,2
29.06.2020 15:00:00 22,2 11,5 23,9 27,0 22,1 18,0 15 8 39 21 SW 1009,1 44 0,0
29.06.2020 14:00:00 20,9 9,9 21,6 26,0 21,6 18,1 21 11 39 21 WSW 1009,6 57 0,0
29.06.2020 13:00:00 22,0 10,2 24,5 26,9 20,8 18,1 22 12 37 20 SW 1009,8 49 0,0
29.06.2020 12:00:00 21,1 11,2 23,0 24,9 20,1 18,1 19 10 44 24 SW 1010,2 58 0,0
29.06.2020 11:00:00 20,2 9,6 21,8 23,5 19,4 18,1 24 13 39 21 SW 1010,4 35 0,0
29.06.2020 10:00:00 19,2 12,1 20,8 21,5 18,9 18,1 17 9 32 17 SW 1010,5 67 0,0
29.06.2020 09:00:00 17,8 13,7 18,3 19,2 18,5 18,1 26 14 37 20 SSW 1010,8 43 0,0
29.06.2020 08:00:00 17,4 13,4 18,0 17,7 18,4 18,1 21 11 29 15 SSW 1011,0 38 0,0
29.06.2020 07:00:00 16,4 14,0 16,5 16,0 18,4 18,1 26 14 33 18 S 1011,1 36 0,0
29.06.2020 06:00:00 16,1 13,3 15,3 15,0 18,7 18,1 22 12 26 14 S 1011,6 52 0,0
29.06.2020 05:00:00 15,7 13,3 13,8 14,9 19,1 18,1 12 7 22 12 S 1011,9 47 0,0
29.06.2020 04:00:00 15,9 12,6 13,8 15,3 19,5 18,2 14 7 18 10 S 1012,3 61 0,0
29.06.2020 03:00:00 15,6 12,7 13,8 15,8 20,0 18,2 12 6 19 10 S 1012,6 57 0,0
29.06.2020 02:00:00 13,5 12,8 11,7 16,5 20,4 18,2 3 2 14 7 SSW 1012,7 32 0,0
29.06.2020 01:00:00 13,9 12,7 12,1 17,3 20,8 18,1 4 2 21 11 NW 1012,6 25 0,0
29.06.2020 00:00:00 15,1 13,8 14,6 18,0 21,2 18,1 3 2 8 4 W 1012,8 35 0,0
28.06.2020 23:00:00 14,6 13,2 12,7 18,4 21,7 18,1 5 3 9 5 NNW 1012,6 36 0,0
28.06.2020 22:00:00 17,0 12,9 14,7 19,5 22,1 18,1 5 3 14 7 NW 1012,5 47 0,0
28.06.2020 21:00:00 18,5 12,5 18,0 20,5 22,5 18,1 10 5 21 12 WNW 1012,2 49 0,0
28.06.2020 20:00:00 19,0 12,9 19,0 21,6 22,8 18,1 11 6 24 13 NW 1012,0 43 0,0
28.06.2020 19:00:00 20,7 12,1 20,5 23,4 22,8 18,1 11 6 23 13 WSW 1011,7 54 0,0
28.06.2020 18:00:00 20,7 12,2 21,5 22,8 22,9 18,1 16 9 30 16 SW 1011,8 74 0,0
28.06.2020 17:00:00 21,0 14,8 22,0 24,1 22,8 18,1 18 10 29 16 SW 1011,8 51 0,0
28.06.2020 16:00:00 19,8 16,2 20,0 23,0 22,8 18,1 14 7 25 13 SW 1011,6 46 0,0
28.06.2020 15:00:00 19,3 15,6 19,0 22,7 22,9 18,1 15 8 25 13 SW 1011,4 54 0,0
28.06.2020 14:00:00 19,3 16,6 19,0 23,2 23,1 18,1 10 6 19 10 WSW 1011,2 35 0,0
28.06.2020 13:00:00 17,6 16,4 18,2 23,1 23,1 18,1 9 5 44 24 W 1010,8 36 5,5
28.06.2020 12:00:00 21,4 17,7 22,4 26,3 22,7 18,0 11 6 20 11 WSW 1010,0 41 0,0
28.06.2020 11:00:00 21,8 18,5 23,7 24,5 22,4 18,0 12 6 22 12 SW 1009,8 50 0,0
28.06.2020 10:00:00 21,1 18,8 21,8 23,5 22,2 18,0 9 5 12 6 SSE 1009,7 29 0,0
28.06.2020 09:00:00 21,1 18,5 21,5 23,1 21,9 18,0 6 4 10 5 S 1009,5 34 0,0
28.06.2020 08:00:00 20,1 17,4 19,7 21,8 21,8 18,0 7 4 12 7 SW 1009,6 28 0,0
28.06.2020 07:00:00 19,6 17,5 19,2 20,4 22,0 18,0 5 3 11 6 WSW 1009,6 22 0,0
28.06.2020 06:00:00 18,7 17,3 17,6 19,5 22,3 18,0 8 5 13 7 WSW 1009,6 23 0,0
28.06.2020 05:00:00 18,9 17,7 17,1 19,7 22,6 17,9 7 4 15 8 SW 1009,5 19 0,0
28.06.2020 04:00:00 18,9 18,0 17,5 20,0 23,0 17,9 11 6 16 9 WSW 1009,5 13 0,0

tt = Température de l'air
td = dewpoint
tt 5cm = Température de l'air 5cm
tt -5cm = Température de l'air -5cm
tt -20cm = Température de l'air -20cm
tt -100cm = Température de l'air -100cm
ff = Vitesse du vent
fx = gusts
dd = Direction du vent
ppp = reduced air pressure
vv = visibility
rr = Quantités de précipitations

stations d'obs. à proximité